Time,TemperatureF,DewpointF,PressureIn,WindDirection,WindDirectionDegrees,WindSpeedMPH,WindSpeedGustMPH,Humidity,HourlyPrecipIn,Conditions,Clouds,dailyrainin,SoftwareType,DateUTC
2013-02-09 00:00:00,44.0,35.0,-100.00,NNE,19,10.0,-999.0,70,0.00,,,-99.99,,2013-02-09 08:00:00,
2013-02-09 00:21:00,44.0,35.0,-100.00,NNE,19,10.0,-999.0,70,0.00,,,-99.99,,2013-02-09 08:21:00,
2013-02-09 00:32:00,44.0,35.0,-100.00,NNE,19,10.0,-999.0,70,0.00,,,-99.99,,2013-02-09 08:32:00,
2013-02-09 00:42:00,44.0,35.0,-100.00,NNE,19,10.0,-999.0,70,0.00,,,-99.99,,2013-02-09 08:42:00,
2013-02-09 00:52:00,44.0,35.0,-100.00,NNE,19,10.0,-999.0,70,0.00,,,-99.99,,2013-02-09 08:52:00,
2013-02-09 01:00:00,43.0,34.0,-100.00,WSW,242,4.0,-999.0,71,0.00,,,-99.99,,2013-02-09 09:00:00,
2013-02-09 01:22:00,43.0,34.0,-100.00,WSW,242,4.0,-999.0,71,0.00,,,-99.99,,2013-02-09 09:22:00,
2013-02-09 01:32:00,43.0,34.0,-100.00,WSW,242,4.0,-999.0,71,0.00,,,-99.99,,2013-02-09 09:32:00,
2013-02-09 01:42:00,43.0,34.0,-100.00,WSW,242,4.0,-999.0,71,0.00,,,-99.99,,2013-02-09 09:42:00,
2013-02-09 01:52:00,43.0,34.0,-100.00,WSW,242,4.0,-999.0,71,0.00,,,-99.99,,2013-02-09 09:52:00,
2013-02-09 02:00:00,43.0,33.0,-100.00,NW,326,2.0,-999.0,67,0.00,,,-99.99,,2013-02-09 10:00:00,
2013-02-09 02:21:00,43.0,33.0,-100.00,NW,326,2.0,-999.0,67,0.00,,,-99.99,,2013-02-09 10:21:00,
2013-02-09 02:32:00,43.0,33.0,-100.00,NW,326,2.0,-999.0,67,0.00,,,-99.99,,2013-02-09 10:32:00,
2013-02-09 02:42:00,43.0,33.0,-100.00,NW,326,2.0,-999.0,67,0.00,,,-99.99,,2013-02-09 10:42:00,
2013-02-09 02:52:00,43.0,33.0,-100.00,NW,326,2.0,-999.0,67,0.00,,,-99.99,,2013-02-09 10:52:00,
2013-02-09 03:00:00,44.0,31.0,-100.00,NNW,339,5.0,-999.0,59,0.00,,,-99.99,,2013-02-09 11:00:00,
2013-02-09 03:22:00,44.0,31.0,-100.00,NNW,339,5.0,-999.0,59,0.00,,,-99.99,,2013-02-09 11:22:00,
2013-02-09 03:32:00,44.0,31.0,-100.00,NNW,339,5.0,-999.0,59,0.00,,,-99.99,,2013-02-09 11:32:00,
2013-02-09 03:42:00,44.0,31.0,-100.00,NNW,339,5.0,-999.0,59,0.00,,,-99.99,,2013-02-09 11:42:00,
2013-02-09 03:52:00,44.0,31.0,-100.00,NNW,339,5.0,-999.0,59,0.00,,,-99.99,,2013-02-09 11:52:00,
2013-02-09 04:00:00,41.0,32.0,-100.00,NNW,337,9.0,-999.0,69,0.00,,,-99.99,,2013-02-09 12:00:00,
2013-02-09 04:22:00,41.0,32.0,-100.00,NNW,337,9.0,-999.0,69,0.00,,,-99.99,,2013-02-09 12:22:00,
2013-02-09 04:32:00,41.0,32.0,-100.00,NNW,337,9.0,-999.0,69,0.00,,,-99.99,,2013-02-09 12:32:00,
2013-02-09 04:42:00,41.0,32.0,-100.00,NNW,337,9.0,-999.0,69,0.00,,,-99.99,,2013-02-09 12:42:00,
2013-02-09 04:52:00,41.0,32.0,-100.00,NNW,337,9.0,-999.0,69,0.00,,,-99.99,,2013-02-09 12:52:00,
2013-02-09 05:00:00,40.0,32.0,-100.00,North,1,10.0,-999.0,72,0.00,,,-99.99,,2013-02-09 13:00:00,
2013-02-09 05:22:00,40.0,32.0,-100.00,North,1,10.0,-999.0,72,0.00,,,-99.99,,2013-02-09 13:22:00,
2013-02-09 05:32:00,40.0,32.0,-100.00,North,1,10.0,-999.0,72,0.00,,,-99.99,,2013-02-09 13:32:00,
2013-02-09 05:42:00,40.0,32.0,-100.00,North,1,10.0,-999.0,72,0.00,,,-99.99,,2013-02-09 13:42:00,
2013-02-09 05:52:00,40.0,32.0,-100.00,North,1,10.0,-999.0,72,0.00,,,-99.99,,2013-02-09 13:52:00,
2013-02-09 06:00:00,40.0,32.0,-100.00,North,349,16.0,-999.0,73,0.00,,,-99.99,,2013-02-09 14:00:00,
2013-02-09 06:22:00,40.0,32.0,-100.00,North,349,16.0,-999.0,73,0.00,,,-99.99,,2013-02-09 14:22:00,
2013-02-09 06:32:00,40.0,32.0,-100.00,North,349,16.0,-999.0,73,0.00,,,-99.99,,2013-02-09 14:32:00,
2013-02-09 06:42:00,40.0,32.0,-100.00,North,349,16.0,-999.0,73,0.00,,,-99.99,,2013-02-09 14:42:00,
2013-02-09 06:52:00,40.0,32.0,-100.00,North,349,16.0,-999.0,73,0.00,,,-99.99,,2013-02-09 14:52:00,
2013-02-09 07:00:00,39.0,32.0,-100.00,North,6,8.0,-999.0,74,0.00,,,-99.99,,2013-02-09 15:00:00,
2013-02-09 07:22:00,39.0,32.0,-100.00,North,6,8.0,-999.0,74,0.00,,,-99.99,,2013-02-09 15:22:00,
2013-02-09 07:32:00,39.0,32.0,-100.00,North,6,8.0,-999.0,74,0.00,,,-99.99,,2013-02-09 15:32:00,
2013-02-09 07:42:00,39.0,32.0,-100.00,North,6,8.0,-999.0,74,0.00,,,-99.99,,2013-02-09 15:42:00,
2013-02-09 07:52:00,39.0,32.0,-100.00,North,6,8.0,-999.0,74,0.00,,,-99.99,,2013-02-09 15:52:00,
2013-02-09 08:00:00,38.0,31.0,-100.00,NW,318,2.0,-999.0,73,0.00,,,-99.99,,2013-02-09 16:00:00,
2013-02-09 08:22:00,38.0,31.0,-100.00,NW,318,2.0,-999.0,73,0.00,,,-99.99,,2013-02-09 16:22:00,
2013-02-09 08:32:00,38.0,31.0,-100.00,NW,318,2.0,-999.0,73,0.00,,,-99.99,,2013-02-09 16:32:00,
2013-02-09 08:42:00,38.0,31.0,-100.00,NW,318,2.0,-999.0,73,0.00,,,-99.99,,2013-02-09 16:42:00,
2013-02-09 08:52:00,38.0,31.0,-100.00,NW,318,2.0,-999.0,73,0.00,,,-99.99,,2013-02-09 16:52:00,
2013-02-09 09:00:00,41.0,32.0,-100.00,NW,323,6.0,-999.0,71,0.00,,,-99.99,,2013-02-09 17:00:00,
2013-02-09 09:22:00,41.0,32.0,-100.00,NW,323,6.0,-999.0,71,0.00,,,-99.99,,2013-02-09 17:22:00,
2013-02-09 09:32:00,41.0,32.0,-100.00,NW,323,6.0,-999.0,71,0.00,,,-99.99,,2013-02-09 17:32:00,
2013-02-09 09:42:00,41.0,32.0,-100.00,NW,323,6.0,-999.0,71,0.00,,,-99.99,,2013-02-09 17:42:00,
2013-02-09 09:52:00,41.0,32.0,-100.00,NW,323,6.0,-999.0,71,0.00,,,-99.99,,2013-02-09 17:52:00,
2013-02-09 10:00:00,42.0,33.0,-100.00,North,355,9.0,-999.0,69,0.00,,,-99.99,,2013-02-09 18:00:00,
2013-02-09 10:23:00,42.0,33.0,-100.00,North,355,9.0,-999.0,69,0.00,,,-99.99,,2013-02-09 18:23:00,
2013-02-09 10:32:00,42.0,33.0,-100.00,North,355,9.0,-999.0,69,0.00,,,-99.99,,2013-02-09 18:32:00,
2013-02-09 10:42:00,42.0,33.0,-100.00,North,355,9.0,-999.0,69,0.00,,,-99.99,,2013-02-09 18:42:00,
2013-02-09 10:52:00,42.0,33.0,-100.00,North,355,9.0,-999.0,69,0.00,,,-99.99,,2013-02-09 18:52:00,
2013-02-09 11:00:00,46.0,33.0,-100.00,NNW,335,4.0,-999.0,59,0.00,,,-99.99,,2013-02-09 19:00:00,
2013-02-09 11:22:00,46.0,33.0,-100.00,NNW,335,4.0,-999.0,59,0.00,,,-99.99,,2013-02-09 19:22:00,
2013-02-09 11:32:00,46.0,33.0,-100.00,NNW,335,4.0,-999.0,59,0.00,,,-99.99,,2013-02-09 19:32:00,
2013-02-09 11:42:00,46.0,33.0,-100.00,NNW,335,4.0,-999.0,59,0.00,,,-99.99,,2013-02-09 19:42:00,
2013-02-09 11:52:00,46.0,33.0,-100.00,NNW,335,4.0,-999.0,59,0.00,,,-99.99,,2013-02-09 19:52:00,
2013-02-09 12:00:00,52.0,32.0,-100.00,North,0,1.0,-999.0,45,0.00,,,-99.99,,2013-02-09 20:00:00,
2013-02-09 12:22:00,52.0,32.0,-100.00,North,0,1.0,-999.0,45,0.00,,,-99.99,,2013-02-09 20:22:00,
2013-02-09 12:32:00,52.0,32.0,-100.00,North,0,1.0,-999.0,45,0.00,,,-99.99,,2013-02-09 20:32:00,
2013-02-09 12:42:00,52.0,32.0,-100.00,North,0,1.0,-999.0,45,0.00,,,-99.99,,2013-02-09 20:42:00,
2013-02-09 12:52:00,52.0,32.0,-100.00,North,0,1.0,-999.0,45,0.00,,,-99.99,,2013-02-09 20:52:00,
2013-02-09 14:00:00,57.0,34.0,-100.00,West,271,5.0,-999.0,42,0.00,,,-99.99,,2013-02-09 22:00:00,
2013-02-09 14:22:00,57.0,34.0,-100.00,West,271,5.0,-999.0,42,0.00,,,-99.99,,2013-02-09 22:22:00,
2013-02-09 14:32:00,57.0,34.0,-100.00,West,271,5.0,-999.0,42,0.00,,,-99.99,,2013-02-09 22:32:00,
2013-02-09 14:42:00,57.0,34.0,-100.00,West,271,5.0,-999.0,42,0.00,,,-99.99,,2013-02-09 22:42:00,
2013-02-09 14:52:00,57.0,34.0,-100.00,West,271,5.0,-999.0,42,0.00,,,-99.99,,2013-02-09 22:52:00,
2013-02-09 15:00:00,53.0,33.0,-100.00,WSW,244,11.0,-999.0,46,0.00,,,-99.99,,2013-02-09 23:00:00,
2013-02-09 15:22:00,53.0,33.0,-100.00,WSW,244,11.0,-999.0,46,0.00,,,-99.99,,2013-02-09 23:22:00,
2013-02-09 15:32:00,53.0,33.0,-100.00,WSW,244,11.0,-999.0,46,0.00,,,-99.99,,2013-02-09 23:32:00,
2013-02-09 15:42:00,53.0,33.0,-100.00,WSW,244,11.0,-999.0,46,0.00,,,-99.99,,2013-02-09 23:42:00,
2013-02-09 15:52:00,53.0,33.0,-100.00,WSW,244,11.0,-999.0,46,0.00,,,-99.99,,2013-02-09 23:52:00,
2013-02-09 16:00:00,53.0,31.0,-100.00,SW,235,15.0,-999.0,42,0.00,,,-99.99,,2013-02-10 00:00:00,
2013-02-09 16:22:00,53.0,31.0,-100.00,SW,235,15.0,-999.0,42,0.00,,,-99.99,,2013-02-10 00:22:00,
2013-02-09 16:32:00,53.0,31.0,-100.00,SW,235,15.0,-999.0,42,0.00,,,-99.99,,2013-02-10 00:32:00,
2013-02-09 16:42:00,53.0,31.0,-100.00,SW,235,15.0,-999.0,42,0.00,,,-99.99,,2013-02-10 00:42:00,
2013-02-09 16:52:00,53.0,31.0,-100.00,SW,235,15.0,-999.0,42,0.00,,,-99.99,,2013-02-10 00:52:00,
2013-02-09 17:00:00,52.0,29.0,-100.00,SW,224,14.0,-999.0,40,0.00,,,-99.99,,2013-02-10 01:00:00,
2013-02-09 17:22:00,52.0,29.0,-100.00,SW,224,14.0,-999.0,40,0.00,,,-99.99,,2013-02-10 01:22:00,
2013-02-09 17:32:00,52.0,29.0,-100.00,SW,224,14.0,-999.0,40,0.00,,,-99.99,,2013-02-10 01:32:00,
2013-02-09 17:42:00,52.0,29.0,-100.00,SW,224,14.0,-999.0,40,0.00,,,-99.99,,2013-02-10 01:42:00,
2013-02-09 17:52:00,52.0,29.0,-100.00,SW,224,14.0,-999.0,40,0.00,,,-99.99,,2013-02-10 01:52:00,
2013-02-09 18:00:00,49.0,29.0,-100.00,SW,229,8.0,-999.0,45,0.00,,,-99.99,,2013-02-10 02:00:00,
2013-02-09 18:22:00,49.0,29.0,-100.00,SW,229,8.0,-999.0,45,0.00,,,-99.99,,2013-02-10 02:22:00,
2013-02-09 18:32:00,49.0,29.0,-100.00,SW,229,8.0,-999.0,45,0.00,,,-99.99,,2013-02-10 02:32:00,
2013-02-09 18:42:00,49.0,29.0,-100.00,SW,229,8.0,-999.0,45,0.00,,,-99.99,,2013-02-10 02:42:00,
2013-02-09 18:52:00,49.0,29.0,-100.00,SW,229,8.0,-999.0,45,0.00,,,-99.99,,2013-02-10 02:52:00,
2013-02-09 19:00:00,47.0,30.0,-100.00,SSW,196,4.0,-999.0,51,0.00,,,-99.99,,2013-02-10 03:00:00,
2013-02-09 19:22:00,47.0,30.0,-100.00,SSW,196,4.0,-999.0,51,0.00,,,-99.99,,2013-02-10 03:22:00,
2013-02-09 19:32:00,47.0,30.0,-100.00,SSW,196,4.0,-999.0,51,0.00,,,-99.99,,2013-02-10 03:32:00,
2013-02-09 19:42:00,47.0,30.0,-100.00,SSW,196,4.0,-999.0,51,0.00,,,-99.99,,2013-02-10 03:42:00,
2013-02-09 19:52:00,47.0,30.0,-100.00,SSW,196,4.0,-999.0,51,0.00,,,-99.99,,2013-02-10 03:52:00,
2013-02-09 20:00:00,46.0,31.0,-100.00,WSW,243,3.0,-999.0,55,0.00,,,-99.99,,2013-02-10 04:00:00,
2013-02-09 20:22:00,46.0,31.0,-100.00,WSW,243,3.0,-999.0,55,0.00,,,-99.99,,2013-02-10 04:22:00,
2013-02-09 20:32:00,46.0,31.0,-100.00,WSW,243,3.0,-999.0,55,0.00,,,-99.99,,2013-02-10 04:32:00,
2013-02-09 20:42:00,46.0,31.0,-100.00,WSW,243,3.0,-999.0,55,0.00,,,-99.99,,2013-02-10 04:42:00,
2013-02-09 20:52:00,46.0,31.0,-100.00,WSW,243,3.0,-999.0,55,0.00,,,-99.99,,2013-02-10 04:52:00,
2013-02-09 21:00:00,45.0,33.0,-100.00,West,259,4.0,-999.0,63,0.00,,,-99.99,,2013-02-10 05:00:00,
2013-02-09 21:23:00,45.0,33.0,-100.00,West,259,4.0,-999.0,63,0.00,,,-99.99,,2013-02-10 05:23:00,
2013-02-09 21:32:00,45.0,33.0,-100.00,West,259,4.0,-999.0,63,0.00,,,-99.99,,2013-02-10 05:32:00,
2013-02-09 21:42:00,45.0,33.0,-100.00,West,259,4.0,-999.0,63,0.00,,,-99.99,,2013-02-10 05:42:00,
2013-02-09 21:52:00,45.0,33.0,-100.00,West,259,4.0,-999.0,63,0.00,,,-99.99,,2013-02-10 05:52:00,
2013-02-09 22:00:00,46.0,31.0,-100.00,West,279,4.0,-999.0,54,0.00,,,-99.99,,2013-02-10 06:00:00,
2013-02-09 22:21:00,46.0,31.0,-100.00,West,279,4.0,-999.0,54,0.00,,,-99.99,,2013-02-10 06:21:00,
2013-02-09 22:32:00,46.0,31.0,-100.00,West,279,4.0,-999.0,54,0.00,,,-99.99,,2013-02-10 06:32:00,
2013-02-09 22:42:00,46.0,31.0,-100.00,West,279,4.0,-999.0,54,0.00,,,-99.99,,2013-02-10 06:42:00,
2013-02-09 22:52:00,46.0,31.0,-100.00,West,279,4.0,-999.0,54,0.00,,,-99.99,,2013-02-10 06:52:00,
2013-02-09 23:00:00,44.0,30.0,-100.00,WSW,253,2.0,-999.0,57,0.00,,,-99.99,,2013-02-10 07:00:00,
2013-02-09 23:21:00,44.0,30.0,-100.00,WSW,253,2.0,-999.0,57,0.00,,,-99.99,,2013-02-10 07:21:00,
2013-02-09 23:32:00,44.0,30.0,-100.00,WSW,253,2.0,-999.0,57,0.00,,,-99.99,,2013-02-10 07:32:00,
2013-02-09 23:42:00,44.0,30.0,-100.00,WSW,253,2.0,-999.0,57,0.00,,,-99.99,,2013-02-10 07:42:00,
2013-02-09 23:52:00,44.0,30.0,-100.00,WSW,253,2.0,-999.0,57,0.00,,,-99.99,,2013-02-10 07:52:00,